SCP
0 0 0 0 0 0 0 0 0 0 0 0 0 0 0 0 0 0 0 0 0 0 0 0 0 0 0 0 0 0 0 0 0 0 0 0 0 0 0 0 0 0 0
0 0 0 0 0 0 0 0 0 0 0 0 0 0 0 0 0 0 0 0 0 0 0 0 0 0 0 0 0 0 0 0 0 0 0 0 0 0 0 0 0 0 0
0 0 0 0 0 0 0 0 0 0 0 0 0 0 0 0 0 0 0 0 0 0 0 0 0 0 0 0 0 0 0 0 0 0 0 0 0 0 0 0 0 0 0
0 0 0 0 0 0 0 0 0 0 0 0 0 0 0 0 0 0 0 0 0 0 0 0 0 0 0 0 0 0 0 0 0 0 0 0 0 0 0 0 0 0 0
0 0 0 0 0 0 0 0 0 0 0 0 0 0 0 0 0 0 0 0 0 0 0 0 0 0 0 0 0 0 0 0 0 0 0 0 0 0 0 0 0 0 0
0 0 0 0 0 0 0 0 0 0 0 0 0 0 0 0 0 0 0 0 0 0 0 0 0 0 0 0 0 0 0 0 0 0 0 0 0 0 0 0 0 0 0
0 0 0 0 0 0 0 0 0 0 0 0 0 0 0 0 0 0 0 0 0 0 0 0 0 0 0 0 0 0 0 0 0 0 0 0 0 0 0 0 0 0 0
0 0 0 0 0 0 0 0 0 0 0 0 0 0 0 0 0 0 0 0 0 0 0 0 0 0 0 0 0 0 0 0 0 0 0 0 0 0 0 0 0 0 0
0 0 0 0 0 0 0 0 0 0 0 0 0 0 0 0 0 0 0 0 0 0 0 0 0 0 0 0 0 0 0 0 0 0 0 0 0 0 0 0 0 0 0
0 0 0 0 0 0 0 0 0 0 0 0 0 0 0 0 0 0 0 0 0 0 0 0 0 0 0 0 0 0 0 0 0 0 0 0 0 0 0 0 0 0 0
0 0 0 0 0 0 0 0 0 0 0 0 0 0 0 0 0 0 0 0 0 0 0 0 0 0 0 0 0 0 0 0 0 0 0 0 0 0 0 0 0 0 0
0 0 0 0 0 0 0 0 0 0 0 0 0 0 0 0 0 0 0 0 0 0 0 0 0 0 0 0 0 0 0 0 0 0 0 0 0 0 0 0 0 0 0
0 0 0 0 0 0 0 0 0 0 0 0 0 0 0 0 0 0 0 0 0 0 0 0 0 0 0 0 0 0 0 0 0 0 0 0 0 0 0 0 0 0 0
0 0 0 0 0 0 0 0 0 0 0 0 0 0 0 0 0 0 0 0 0 0 0 0 0 0 0 0 0 0 0 0 0 0 0 0 0 0 0 0 0 0 0
0 0 0 0 0 0 0 0 0 0 0 0 0 0 0 0 0 0 0 0 0 0 0 0 0 0 0 0 0 0 0 0 0 0 0 0 0 0 0 0 0 0 0
0 0 0 0 0 0 0 0 0 0 0 0 0 0 0 0 0 0 0 0 0 0 0 0 0 0 0 0 0 0 0 0 0 0 0 0 0 0 0 0 0 0 0
0 0 0 0 0 0 0 0 0 0 0 0 0 0 0 0 0 0 0 0 0 0 0 0 0 0 0 0 0 0 0 0 0 0 0 0 0 0 0 0 0 0 0
0 0 0 0 0 0 0 0 0 0 0 0 0 0 0 0 0 0 0 0 0 0 0 0 0 0 0 0 0 0 0 0 0 0 0 0 0 0 0 0 0 0 0
0 0 0 0 0 0 0 0 0 0 0 0 0 0 0 0 0 0 0 0 0 0 0 0 0 0 0 0 0 0 0 0 0 0 0 0 0 0 0 0 0 0 0
0 0 0 0 0 0 0 0 0 0 0 0 0 0 0 0 0 0 0 0 1 1 1 1 0 0 1 1 0 0 0 0 0 0 0 0 0 0 0 0 0 0 0
0 0 0 0 0 0 0 0 0 0 0 0 0 0 0 0 0 0 0 0 0 1 1 1 1 0 0 0 0 0 0 0 0 0 0 0 0 0 0 0 0 0 0
0 0 0 0 0 0 0 0 0 0 0 0 0 0 0 0 0 0 0 0 0 0 0 0 0 0 0 0 0 0 0 0 0 0 0 0 0 0 0 0 0 0 0
0 0 0 0 0 0 0 0 0 0 0 0 0 0 0 0 0 0 0 0 0 0 0 0 0 0 0 0 0 0 0 0 0 0 0 0 0 0 0 0 0 0 0
0 0 0 0 0 0 0 0 0 0 0 0 0 0 0 0 0 0 0 0 0 0 0 0 0 0 0 0 0 0 0 0 0 0 0 0 0 0 0 0 0 0 0
0 0 0 0 0 0 0 0 0 0 0 0 0 0 0 0 0 0 0 0 0 0 0 0 0 0 0 0 0 0 0 0 0 0 0 0 0 0 0 0 0 0 0
0 0 0 0 0 0 0 0 0 0 0 0 0 0 0 0 0 0 0 0 0 0 0 0 0 0 0 0 0 0 0 0 0 0 0 0 0 0 0 0 0 0 0
Wind_Speed
3 2 2 1 3 2 3 3 2 3 3 4 3 3 2 1 2 3 6 9 9 9 9 9 9 9 9 9 9 9 9 9 8 8 8 8 8 8 7 7 7 7 6
2 2 3 2 2 2 1 2 2 3 3 2 3 3 3 3 3 3 5 8 9 9 9 10 10 10 10 10 10 9 9 9 9 9 8 8 8 8 8 8 8 7 6
3 3 2 3 2 2 2 3 3 3 4 4 4 3 3 3 4 4 4 5 7 9 9 9 9 10 10 11 11 11 10 10 10 10 9 9 8 8 8 8 8 8 7
3 3 3 3 2 3 3 2 3 3 2 3 3 2 3 3 4 4 4 4 4 6 9 9 8 9 10 11 11 11 11 11 10 11 10 10 9 9 9 9 9 8 8
4 4 2 2 3 3 2 2 2 2 2 2 3 4 3 3 4 4 4 5 5 4 5 9 9 8 10 11 11 11 11 11 11 11 12 12 11 10 10 10 10 9 9
4 3 3 3 3 2 2 1 1 1 1 2 2 3 3 3 3 4 4 5 5 6 6 6 7 8 10 9 10 10 11 12 12 12 12 13 13 12 11 11 11 11 11
5 3 2 4 3 2 1 3 3 4 3 2 3 3 4 4 4 4 3 3 5 5 4 5 5 4 6 11 10 10 11 12 12 12 12 13 13 12 12 12 12 12 11
5 4 2 3 3 2 2 2 2 2 2 2 3 3 4 4 5 4 4 4 4 5 6 6 5 4 5 5 8 11 10 11 12 12 12 12 13 12 12 13 13 13 13
4 3 3 3 2 4 3 2 3 4 3 3 2 3 2 2 3 4 4 3 3 3 4 4 6 5 6 4 5 10 10 9 10 11 11 11 12 12 12 13 13 14 14
5 4 4 3 3 2 2 4 3 2 3 3 3 2 3 5 3 2 5 5 5 4 4 4 4 5 6 5 4 4 8 7 8 9 10 10 10 11 12 12 13 14 14
5 5 4 4 3 2 2 1 1 3 3 4 3 3 3 3 5 4 2 3 4 5 4 5 4 3 4 5 4 5 7 6 6 6 7 8 9 9 10 11 12 13 14
6 6 5 4 4 2 3 2 2 3 2 2 3 3 3 3 4 4 4 4 3 3 4 3 4 4 4 4 4 7 6 6 6 6 6 7 7 8 8 10 11 12 13
6 6 6 5 4 3 3 3 3 2 2 2 3 3 3 3 3 4 5 4 3 3 4 5 5 4 4 4 3 7 7 7 7 7 7 7 7 7 7 8 9 10 11
5 6 6 6 5 5 5 4 4 4 3 3 3 2 3 3 3 3 4 4 5 4 5 5 3 4 3 4 2 5 6 9 8 8 8 8 8 8 8 8 8 8 9
5 7 7 6 6 6 5 5 3 3 4 5 5 5 5 2 3 3 3 4 5 6 4 4 4 3 3 3 2 5 6 7 9 9 9 10 10 10 10 10 10 10 10
5 6 7 6 6 6 6 6 5 4 5 4 4 3 4 5 3 4 4 4 5 6 6 3 3 3 2 4 5 5 7 6 10 11 11 11 11 11 11 11 11 12 12
6 6 6 6 6 6 6 6 6 5 6 6 6 6 6 5 4 4 4 5 5 5 6 6 4 3 4 7 5 6 8 8 9 15 14 13 13 13 13 13 13 13 13
6 6 6 6 6 6 6 7 7 7 7 6 6 6 6 5 5 6 4 5 5 4 7 8 6 5 6 7 7 7 8 8 9 9 14 13 14 14 14 14 14 14 15
4 4 4 5 5 5 5 5 6 6 6 5 5 5 5 5 5 5 5 5 5 5 6 7 8 5 6 6 6 8 10 8 10 8 12 15 15 15 15 15 16 16 16
4 4 3 3 2 3 3 3 4 4 3 3 2 2 2 3 4 5 5 5 6 6 6 7 7 6 6 6 6 7 8 6 8 9 9 8 11 15 17 17 17 17 17
4 4 3 3 2 1 1 0 1 2 2 2 1 1 2 3 5 3 3 3 4 5 5 6 6 6 6 5 5 6 8 8 8 9 9 9 8 9 11 15 18 18 17
5 5 4 4 3 4 6 5 2 1 1 1 2 2 2 3 3 2 3 4 5 5 6 6 6 6 6 6 5 7 8 9 9 6 6 9 9 10 10 11 9 11 14
7 6 6 6 7 8 9 7 5 3 3 3 3 2 2 4 3 3 1 2 3 3 4 6 8 7 7 6 7 9 8 10 10 9 9 11 10 11 11 11 11 10 11
8 8 8 8 9 10 10 8 5 4 5 5 4 4 4 4 7 7 6 5 5 3 3 4 5 7 7 7 7 9 10 11 12 10 10 11 11 11 11 10 11 12 14
9 9 9 9 9 9 10 9 6 4 4 4 4 5 4 5 8 8 6 6 6 5 3 4 5 7 9 9 9 8 9 10 11 9 7 10 11 11 11 11 11 12 14
9 9 9 8 9 9 10 10 8 2 3 2 2 3 7 7 7 8 7 6 7 7 8 7 7 9 10 10 11 9 9 9 10 10 7 8 10 10 11 10 10 9 10
Wind_Direction
192 177 189 213 231 185 187 202 203 181 193 197 209 174 185 182 178 184 135 160 172 176 179 185 190 191 188 183 180 178 178 177 175 174 173 172 173 173 173 171 171 172 172
178 189 191 194 215 219 224 223 189 194 212 195 200 181 192 174 169 197 160 160 175 184 191 193 194 196 194 192 191 189 189 187 183 184 186 186 185 185 184 183 184 184 185
178 199 187 193 185 189 185 215 203 210 211 197 190 188 183 187 167 189 186 172 171 181 191 195 198 200 200 199 198 198 198 198 192 192 194 194 193 193 193 193 194 194 193
186 210 197 176 160 196 194 188 225 211 206 206 184 191 169 170 185 190 192 189 187 185 179 187 200 203 204 205 204 204 205 205 200 198 201 201 202 202 201 201 204 204 203
182 209 198 128 194 198 200 214 170 232 197 199 185 172 180 175 177 186 187 190 187 203 180 170 194 203 208 210 210 210 209 210 208 207 208 210 211 210 209 208 209 210 211
179 196 175 165 214 193 186 187 146 205 242 212 212 153 180 170 185 171 202 185 189 196 201 187 190 194 203 209 212 212 212 213 215 216 216 217 217 215 214 214 215 216 216
169 202 186 162 227 191 211 193 203 173 195 190 204 182 177 185 180 182 204 203 181 189 193 195 218 202 187 197 206 212 217 219 219 219 221 221 221 220 217 218 219 220 220
179 181 200 198 191 173 191 207 232 243 162 198 245 216 192 178 195 186 188 199 193 191 194 195 202 205 234 196 182 199 213 222 224 223 223 224 224 223 221 221 222 222 223
183 175 185 215 189 219 171 205 212 228 216 193 254 279 264 216 171 173 199 194 202 212 207 189 206 200 218 224 187 186 201 216 226 227 225 226 226 225 225 226 226 226 227
183 178 183 189 215 222 158 208 187 233 248 222 186 260 313 347 294 182 187 187 194 214 222 224 209 196 210 221 192 167 187 210 226 230 228 227 227 226 227 231 234 233 232
188 188 187 186 198 213 177 239 168 249 243 261 237 214 220 232 261 280 240 192 196 203 202 215 224 216 207 222 220 173 173 208 222 227 229 228 228 229 231 234 240 242 240
186 185 189 190 200 195 177 199 207 200 260 293 284 258 242 244 245 255 257 237 221 193 196 224 236 226 226 227 203 131 173 209 220 223 225 227 230 232 235 240 243 247 248
182 178 186 191 198 193 199 203 208 230 211 224 249 259 268 275 292 285 282 276 264 217 195 226 224 232 234 234 185 154 194 208 218 221 223 226 231 236 241 246 248 251 254
182 169 185 193 199 200 203 201 219 205 208 223 234 266 264 255 268 272 283 286 267 243 210 224 227 226 241 243 150 195 213 194 212 221 226 229 233 237 242 247 250 253 256
184 179 190 197 201 203 209 211 223 217 209 226 218 207 236 229 242 258 267 277 284 282 263 189 226 201 230 241 166 241 247 188 203 221 229 232 235 238 241 244 248 251 253
194 192 197 201 203 202 205 218 219 209 222 228 248 256 251 248 240 244 250 254 264 277 283 279 229 244 269 278 193 242 256 188 209 221 229 234 237 240 242 244 245 247 249
197 204 206 208 209 209 207 213 232 217 225 228 229 229 233 259 258 253 245 249 251 258 266 272 259 233 235 266 262 256 256 249 235 207 217 229 236 240 242 244 245 245 246
211 209 213 214 217 216 214 217 225 223 225 230 233 237 241 235 236 261 263 258 258 264 266 274 278 260 234 245 256 262 264 257 264 210 205 223 233 239 242 245 246 246 246
209 212 213 214 217 220 219 225 229 229 231 233 235 237 244 248 246 252 259 265 265 257 258 268 271 279 270 260 261 258 262 264 269 253 212 218 228 236 242 244 245 246 246
188 186 187 193 205 218 222 224 221 225 223 220 225 235 251 257 259 264 258 263 271 274 268 267 274 276 272 273 272 273 273 262 265 277 274 259 236 230 236 240 241 242 243
163 155 150 144 151 164 26 321 215 200 191 183 154 114 72 58 35 352 313 298 283 270 268 267 270 273 274 282 279 282 282 285 275 272 274 270 261 255 244 236 236 239 239
125 122 118 111 92 68 54 45 16 70 85 103 100 95 117 101 81 78 19 349 328 295 289 284 279 280 285 288 292 288 289 286 284 286 293 284 285 280 276 270 262 235 232
112 106 99 92 83 63 50 54 48 65 72 64 62 44 25 52 22 354 325 251 269 269 281 289 288 290 294 302 303 290 284 284 285 294 293 280 278 275 274 275 272 255 242
103 100 95 91 86 66 49 51 44 81 74 67 58 47 38 34 27 359 336 327 312 300 288 280 299 302 304 309 296 285 284 278 271 263 257 270 276 275 275 274 266 251 245
102 101 95 92 87 71 46 37 11 80 81 71 60 52 37 46 39 356 324 320 314 307 248 224 261 274 281 278 277 282 279 277 278 279 271 274 282 285 285 282 276 254 243
103 101 94 88 84 76 53 35 6 37 66 61 82 106 78 47 28 355 329 321 313 319 317 301 271 255 259 257 236 248 272 280 285 288 288 287 287 291 287 279 280 284 272